#timestamp,LO_Frequency,Hit,StdDev 
1563300015.1,286047002.7,P
1563300016.0,286047002.7,P
1563300035.8,286046999.9,N
1563300055.7,286046999.8,N
1563300075.5,286047002.4,N
1563300095.4,286047002.7,N
1563300115.2,286047002.6,N
1563300135.0,286047002.8,N
1563300135.9,286047002.8,N
1563300155.8,286047002.7,N
1563300175.6,286047002.8,N
1563300195.4,286047000.1,N
1563300215.3,286047000.0,N
1563300235.1,286047000.9,N
1563300255.9,286047001.0,N
1563300275.7,286047000.5,N
1563300295.5,286047000.7,N
1563300315.4,286047001.1,N
1563300335.2,286046998.5,N
1563300355.0,286046998.2,N
1563300356.0,286046998.2,N
1563300375.8,286046998.2,N
1563300395.6,286046998.7,N
1563300415.5,286046999.0,N
1563300435.3,286046999.4,N
1563300455.2,286046999.1,N
1563300475.9,286046999.3,N
1563300495.7,286046998.7,N
1563300515.6,286046999.1,N
1563300535.4,286046999.3,N
1563300555.2,286046998.4,N
1563300575.1,286046998.7,N
1563300576.0,286046998.7,N
1563300595.8,286047000.7,N
1563300615.7,286046999.1,N
1563300635.5,286046996.5,N
1563300655.3,286046997.4,N
1563300675.2,286046997.4,N
1563300695.0,286046997.5,N
1563300695.9,286046997.5,N
1563300715.8,286046995.3,Y
1563300735.6,286046998.0,P
1563300755.4,286046997.6,P
1563300775.3,286046997.6,P
1563300795.1,286046997.2,Y
1563300815.8,286046998.3,P
1563300835.7,286047000.8,P
1563300855.5,286046998.8,N
1563300875.4,286046996.9,N
1563300895.2,286046996.9,N
1563300915.0,286046996.5,N
1563300915.9,286046996.5,N
1563300935.8,286046998.9,N
1563300955.6,286046998.7,N
1563300975.5,286047000.8,N
1563300995.3,286047000.7,N
1563301015.1,286047000.8,N
1563301035.9,286047000.9,N
1563301055.7,286047000.6,N
1563301075.5,286046998.1,N
1563301095.4,286047000.2,N
1563301115.2,286046999.8,N
1563301135.1,286047000.2,N
1563301136.0,286047000.2,N
1563301155.8,286046999.9,N
1563301175.6,286046998.8,N
1563301195.5,286046998.3,N
1563301215.3,286047001.1,N
1563301235.2,286046999.5,N
1563301255.9,286046999.6,N
1563301275.7,286046996.9,N
1563301295.6,286046999.3,N
1563301315.4,286046998.8,N
1563301335.2,286046998.7,N
1563301355.1,286046996.9,N
1563301356.0,286046996.9,N
1563301375.8,286046997.0,N
1563301395.7,286046999.6,N
1563301415.5,286046996.9,N
1563301435.3,286046998.9,N
1563301455.2,286046998.8,N
1563301475.0,286046998.9,N
1563301475.9,286046998.9,N
1563301495.8,286047011.9,Y
1563301515.6,286047000.3,P
1563301535.4,286047005.4,P
1563301555.3,286047004.1,N
1563301575.1,286047001.4,N
1563301595.8,286047003.8,N
1563301615.7,286047001.5,N
1563301635.5,286047004.0,N
1563301655.4,286047003.7,N
1563301675.2,286047003.7,N
1563301695.0,286047004.4,N
1563301695.9,286047004.4,N
1563301715.8,286047001.3,N
1563301735.6,286047003.5,N
1563301755.4,286047003.1,N
1563301775.3,286047003.9,N
1563301795.1,286047003.5,N
1563301815.9,286047003.7,N
1563301835.7,286047003.3,N
1563301855.5,286047005.6,Y
1563301875.4,286047001.0,P
1563301895.2,286046998.8,N
1563301915.1,286046998.8,N
1563301916.0,286046998.8,N
1563301935.8,286046998.1,N
1563301955.6,286046996.9,N
1563301975.5,286046999.4,N
1563301995.3,286046998.5,N
1563302015.1,286046997.2,N
1563302035.9,286046997.7,N
1563302055.7,286046999.4,N
1563302075.6,286046999.6,N
1563302095.4,286046997.6,N
1563302115.2,286046996.8,N
1563302135.1,286046999.6,N
1563302136.0,286046999.6,N
1563302155.8,286046997.6,N
1563302175.7,286046995.7,N
1563302195.5,286046995.7,N
1563302215.3,286046997.6,N
1563302235.2,286046997.6,N
1563302255.0,286046995.8,N
1563302255.9,286046995.8,N
1563302275.7,286046996.2,N
1563302295.6,286046996.2,N
1563302315.4,286046995.4,N
1563302335.3,286046997.6,N
1563302355.1,286046996.8,N
1563302356.0,286046996.8,N
1563302375.8,286046997.8,N
1563302395.7,286046997.2,N
1563302415.5,286046997.0,N
1563302435.3,286046997.6,N
1563302455.2,286046997.9,N
1563302475.0,286046998.9,N
1563302475.9,286046998.9,N
1563302495.8,286046999.2,N
1563302515.6,286046996.6,N
1563302535.4,286046999.5,N
1563302555.3,286046996.6,N
1563302575.1,286046999.6,N
1563302595.9,286046996.6,N
1563302615.7,286046996.7,N
1563302635.5,286046999.3,N
1563302655.4,286046998.4,N
1563302675.2,286046998.5,N
1563302695.0,286047000.5,N
1563302696.0,286047000.5,N
1563302715.8,286046999.3,N
1563302735.6,286047000.5,N
1563302755.5,286047000.9,N
1563302775.3,286047001.0,N
1563302795.1,286047000.2,N
1563302815.9,286047002.7,N
1563302835.7,286047000.1,N
1563302855.6,286046998.6,N
1563302875.4,286046999.2,N
1563302895.2,286046998.8,N
1563302915.1,286047000.7,N
1563302916.0,286047000.7,N
1563302935.8,286047000.4,N
1563302955.6,286047000.9,N
1563302975.5,286046998.4,N
1563302995.3,286046999.2,N
1563303015.2,286046999.0,N
1563303035.9,286047000.7,N
1563303055.7,286046998.2,N
1563303075.6,286046997.3,N
1563303095.4,286046997.0,N
1563303115.3,286046999.2,N
1563303135.1,286046996.8,N
1563303136.0,286046996.8,N
1563303155.8,286046997.8,N
1563303175.7,286046997.2,N
1563303195.5,286046999.6,N
1563303215.3,286046998.3,N
1563303235.2,286046999.4,N
1563303255.0,286046999.1,N
1563303255.9,286046999.1,N
1563303275.8,286047000.9,N
1563303295.6,286046998.1,N
1563303315.4,286046999.0,N
1563303335.3,286046999.0,N
1563303355.1,286047000.5,N
1563303375.9,286046999.8,N
1563303395.7,286047002.6,N
1563303415.5,286047000.4,N
1563303435.4,286047000.9,N
1563303455.2,286047001.2,N
1563303475.0,286047000.3,N
1563303475.9,286047000.3,N
1563303495.8,286047000.5,N
1563303515.6,286047000.2,N
1563303535.5,286047002.5,N
1563303555.3,286047001.6,N
1563303575.1,286047001.7,N
1563303595.9,286047003.9,N
